| time (UTC) | temp C | wind direction | speed KPH | gust KPH | rain 1hr cm | rain 24hr cm | rain mn cm | humidity % | barometer mb |
| 20260507030025 | 4 | 242 | 0.0 | 8.0 | 0.03 | 1.52 | 1.52 | 97 | 1007.0 |
| 20260507024523 | 4 | 235 | 1.6 | 8.0 | 0.05 | 1.52 | 1.52 | 97 | 1007.1 |
| 20260507023022 | 5 | 267 | 0.0 | 8.0 | 0.05 | 1.52 | 1.52 | 97 | 1007.0 |
| 20260507021522 | 5 | 242 | 0.0 | 4.8 | 0.08 | 1.52 | 1.52 | 97 | 1007.0 |
| 20260507020021 | 5 | 266 | 0.0 | 8.0 | 0.05 | 1.50 | 1.50 | 97 | 1007.1 |
| 20260507014527 | 5 | 193 | 1.6 | 9.7 | 0.03 | 1.45 | 1.45 | 97 | 1007.0 |
| 20260507013034 | 5 | 283 | 1.6 | 11.3 | 0.05 | 1.45 | 1.45 | 97 | 1006.8 |
| 20260507011529 | 5 | 245 | 1.6 | 8.0 | 0.03 | 1.42 | 1.42 | 97 | 1006.9 |
| 20260507010013 | 5 | 243 | 1.6 | 11.3 | 0.03 | 1.42 | 1.42 | 97 | 1006.6 |
| 20260507004516 | 5 | 264 | 0.0 | 8.0 | 0.03 | 1.42 | 1.42 | 97 | 1006.4 |
| 20260507003008 | 6 | 245 | 1.6 | 8.0 | 0.00 | 1.42 | 1.42 | 97 | 1006.1 |
| 20260507001508 | 6 | 273 | 1.6 | 14.5 | 0.03 | 1.42 | 1.42 | 96 | 1005.8 |
| 20260507000010 | 7 | 239 | 0.0 | 6.4 | 0.03 | 1.42 | 1.42 | 96 | 1005.4 |
| 20260506234558 | 8 | 285 | 0.0 | 6.4 | 0.03 | 1.42 | 1.42 | 97 | 1005.1 |
| 20260506233107 | 8 | 220 | 0.0 | 6.4 | 0.03 | 1.42 | 1.42 | 97 | 1004.8 |
| 20260506231556 | 8 | 114 | 0.0 | 4.8 | 0.00 | 1.40 | 1.40 | 96 | 1004.8 |
| 20260506230052 | 8 | 164 | 0.0 | 8.0 | 0.03 | 1.40 | 1.40 | 95 | 1004.5 |
| 20260506224548 | 11 | 285 | 3.2 | 9.7 | 0.03 | 1.40 | 1.40 | 94 | 1004.1 |
| 20260506223103 | 12 | 151 | 0.0 | 11.3 | 0.05 | 1.40 | 1.40 | 95 | 1003.7 |
| 20260506221547 | 12 | 134 | 0.0 | 3.2 | 0.05 | 1.40 | 1.40 | 95 | 1003.8 |
| 20260506220047 | 13 | 86 | 0.0 | 1.6 | 0.03 | 1.37 | 1.37 | 95 | 1003.4 |
| 20260506214545 | 13 | 115 | 1.6 | 4.8 | 0.03 | 1.40 | 1.37 | 93 | 1003.3 |
| 20260506213045 | 13 | 105 | 4.8 | 14.5 | 0.00 | 1.37 | 1.35 | 91 | 1003.3 |
| 20260506211546 | 13 | 122 | 4.8 | 12.9 | 0.00 | 1.37 | 1.35 | 91 | 1003.3 |
| 20260506210045 | 13 | 72 | 6.4 | 19.3 | 0.00 | 1.37 | 1.35 | 93 | 1003.2 |
| 20260506204543 | 13 | 141 | 1.6 | 14.5 | 0.03 | 1.37 | 1.35 | 96 | 1003.3 |
| 20260506203045 | 13 | 109 | 11.3 | 19.3 | 0.03 | 1.37 | 1.35 | 96 | 1003.0 |
| 20260506201542 | 13 | 108 | 17.7 | 29.0 | 0.05 | 1.37 | 1.35 | 96 | 1002.7 |
| 20260506194539 | 13 | 124 | 12.9 | 19.3 | 0.28 | 1.35 | 1.32 | 96 | 1003.2 |
| 20260506193037 | 13 | 95 | 11.3 | 22.5 | 0.41 | 1.35 | 1.32 | 96 | 1003.3 |
| 20260506191535 | 13 | 98 | 11.3 | 22.5 | 0.41 | 1.32 | 1.30 | 97 | 1003.4 |
| 20260506190035 | 12 | 98 | 8.0 | 17.7 | 0.46 | 1.30 | 1.27 | 97 | 1003.7 |
| 20260506184531 | 12 | 123 | 4.8 | 12.9 | 0.30 | 1.07 | 1.04 | 97 | 1004.2 |
| 20260506183031 | 13 | 150 | 3.2 | 14.5 | 0.23 | 0.94 | 0.91 | 97 | 1004.2 |
| 20260506181535 | 12 | 127 | 9.7 | 19.3 | 0.28 | 0.91 | 0.89 | 97 | 1004.0 |
| 20260506180037 | 12 | 105 | 11.3 | 19.3 | 0.25 | 0.84 | 0.81 | 97 | 1004.3 |
| 20260506174528 | 12 | 124 | 9.7 | 17.7 | 0.28 | 0.76 | 0.71 | 97 | 1004.3 |
| 20260506173024 | 12 | 99 | 9.7 | 20.9 | 0.33 | 0.69 | 0.66 | 97 | 1004.6 |
| 20260506171537 | 12 | 82 | 12.9 | 22.5 | 0.38 | 0.64 | 0.61 | 97 | 1005.0 |
| 20260506170022 | 12 | 96 | 12.9 | 22.5 | 0.36 | 0.56 | 0.53 | 97 | 1005.0 |
| 20260506164521 | 12 | 82 | 11.3 | 22.5 | 0.30 | 0.46 | 0.43 | 96 | 1005.1 |
| 20260506163022 | 13 | 108 | 8.0 | 16.1 | 0.23 | 0.36 | 0.33 | 96 | 1005.3 |
| 20260506161524 | 13 | 126 | 12.9 | 24.1 | 0.15 | 0.25 | 0.23 | 96 | 1005.2 |
| 20260506160016 | 13 | 96 | 8.0 | 14.5 | 0.15 | 0.20 | 0.18 | 96 | 1005.5 |
| 20260506154513 | 13 | 126 | 8.0 | 14.5 | 0.13 | 0.15 | 0.13 | 95 | 1005.7 |
| 20260506153012 | 13 | 95 | 8.0 | 16.1 | 0.10 | 0.13 | 0.10 | 95 | 1005.8 |
| 20260506151512 | 13 | 131 | 6.4 | 12.9 | 0.08 | 0.10 | 0.08 | 94 | 1006.0 |
| 20260506150011 | 13 | 111 | 1.6 | 9.7 | 0.03 | 0.05 | 0.03 | 91 | 1006.4 |
| 20260506144509 | 14 | 84 | 4.8 | 16.1 | 0.00 | 0.03 | 0.00 | 85 | 1006.7 |
| 20260506143010 | 15 | 148 | 3.2 | 11.3 | 0.00 | 0.03 | 0.00 | 82 | 1006.6 |
| 20260506141508 | 14 | 242 | 0.0 | 8.0 | 0.00 | 0.03 | 0.00 | 84 | 1006.4 |
| 20260506140010 | 15 | 151 | 1.6 | 9.7 | 0.00 | 0.03 | 0.00 | 83 | 1006.2 |
| 20260506134519 | 15 | 111 | 3.2 | 8.0 | 0.00 | 0.03 | 0.00 | 83 | 1006.1 |
| 20260506133007 | 14 | 149 | 1.6 | 8.0 | 0.00 | 0.03 | 0.00 | 85 | 1006.1 |
| 20260506131506 | 13 | 88 | 0.0 | 1.6 | 0.00 | 0.03 | 0.00 | 87 | 1006.2 |
| 20260506130006 | 12 | 121 | 0.0 | 1.6 | 0.00 | 0.03 | 0.00 | 88 | 1006.5 |
| 20260506124510 | 12 | 138 | 0.0 | 3.2 | 0.00 | 0.03 | 0.00 | 89 | 1006.9 |
| 20260506123005 | 12 | 262 | 0.0 | 3.2 | 0.00 | 0.03 | 0.00 | 92 | 1006.9 |
| 20260506121508 | 11 | 96 | 0.0 | 4.8 | 0.00 | 0.03 | 0.00 | 94 | 1006.7 |
| 20260506120009 | 11 | 208 | 0.0 | 1.6 | 0.00 | 0.03 | 0.00 | 94 | 1005.8 |
| 20260506114503 | 11 | 255 | 0.0 | 1.6 | 0.00 | 0.03 | 0.00 | 94 | 1006.5 |
| 20260506113004 | 11 | 200 | 0.0 | 1.6 | 0.00 | 0.03 | 0.00 | 94 | 1006.6 |
| 20260506111613 | 11 | 111 | 0.0 | 3.2 | 0.00 | 0.03 | 0.00 | 94 | 1006.5 |
| 20260506110059 | 11 | 259 | 0.0 | 1.6 | 0.00 | 0.03 | 0.00 | 94 | 1006.5 |
| 20260506104605 | 11 | 146 | 0.0 | 1.6 | 0.00 | 0.03 | 0.00 | 95 | 1006.4 |
| 20260506103105 | 11 | 251 | 0.0 | 1.6 | 0.00 | 0.03 | 0.00 | 94 | 1006.4 |
| 20260506101554 | 11 | 266 | 0.0 | 8.0 | 0.00 | 0.03 | 0.00 | 93 | 1006.2 |
| 20260506100054 | 11 | 156 | 0.0 | 1.6 | 0.00 | 0.03 | 0.00 | 93 | 1006.2 |
| 20260506094554 | 11 | 88 | 0.0 | 3.2 | 0.00 | 0.03 | 0.00 | 93 | 1006.2 |
| 20260506093056 | 11 | 92 | 0.0 | 1.6 | 0.00 | 0.03 | 0.00 | 95 | 1006.4 |
| 20260506091551 | 11 | 146 | 0.0 | 1.6 | 0.00 | 0.03 | 0.00 | 94 | 1006.6 |
| 20260506090050 | 11 | 13 | 0.0 | 0.0 | 0.00 | 0.03 | 0.00 | 95 | 1006.4 |
| 20260506084548 | 11 | 14 | 0.0 | 1.6 | 0.00 | 0.03 | 0.00 | 94 | 1006.7 |
| 20260506083107 | 11 | 43 | 0.0 | 1.6 | 0.00 | 0.03 | 0.00 | 94 | 1006.9 |
| 20260506081549 | 11 | 21 | 0.0 | 0.0 | 0.00 | 0.03 | 0.00 | 93 | 1007.0 |
| 20260506073038 | 12 | 22 | 0.0 | 0.0 | 0.00 | 0.03 | 0.00 | 92 | 1007.3 |
| 20260506071535 | 12 | 21 | 0.0 | 1.6 | 0.00 | 0.03 | 0.00 | 91 | 1007.2 |
| 20260506061536 | 13 | 109 | 0.0 | 3.2 | 0.00 | 0.03 | 0.00 | 89 | 1007.1 |
| 20260506044519 | 14 | 98 | 0.0 | 1.6 | 0.00 | 0.03 | 0.00 | 84 | 1007.8 |
| 20260506043015 | 14 | 103 | 1.6 | 11.3 | 0.00 | 0.03 | 0.00 | 82 | 1007.8 |
| 20260506041513 | 14 | 127 | 4.8 | 12.9 | 0.00 | 0.03 | 0.00 | 82 | 1007.6 |
| 20260506040009 | 15 | 113 | 3.2 | 11.3 | 0.00 | 0.03 | 0.03 | 79 | 1007.7 |
| 20260506034508 | 15 | 94 | 3.2 | 8.0 | 0.00 | 0.03 | 0.03 | 78 | 1007.6 |
| 20260506033014 | 15 | 114 | 1.6 | 4.8 | 0.00 | 0.03 | 0.03 | 77 | 1007.7 |
| 20260506031507 | 15 | 91 | 1.6 | 9.7 | 0.00 | 0.03 | 0.03 | 76 | 1007.7 |